Time,TemperatureF,DewpointF,PressureIn,WindDirection,WindDirectionDegrees,WindSpeedMPH,WindSpeedGustMPH,Humidity,HourlyPrecipIn,Conditions,Clouds,dailyrainin,SolarRadiationWatts/m^2,SoftwareType,DateUTC
2013-03-18 00:01:00,57.0,55.0,-100.00,NNW,341,5.0,7.0,94,0.00,,,0.03,0.000000,,2013-03-18 10:01:00,
2013-03-18 00:33:00,57.0,55.0,-100.00,NNW,341,5.0,7.0,94,0.00,,,0.03,0.000000,,2013-03-18 10:33:00,
2013-03-18 00:42:00,57.0,55.0,-100.00,NNW,341,5.0,7.0,94,0.00,,,0.03,0.000000,,2013-03-18 10:42:00,
2013-03-18 00:53:00,57.0,55.0,-100.00,NNW,341,5.0,7.0,94,0.00,,,0.03,0.000000,,2013-03-18 10:53:00,
2013-03-18 01:01:00,57.0,55.0,-100.00,NNE,28,5.0,8.0,93,0.00,,,0.02,0.000000,,2013-03-18 11:01:00,
2013-03-18 01:22:00,57.0,55.0,-100.00,NNE,28,5.0,8.0,93,0.00,,,0.02,0.000000,,2013-03-18 11:22:00,
2013-03-18 01:32:00,57.0,55.0,-100.00,NNE,28,5.0,8.0,93,0.00,,,0.02,0.000000,,2013-03-18 11:32:00,
2013-03-18 01:42:00,57.0,55.0,-100.00,NNE,28,5.0,8.0,93,0.00,,,0.02,0.000000,,2013-03-18 11:42:00,
2013-03-18 01:52:00,57.0,55.0,-100.00,NNE,28,5.0,8.0,93,0.00,,,0.02,0.000000,,2013-03-18 11:52:00,
2013-03-18 02:01:00,56.0,54.0,-100.00,SSE,148,0.0,7.0,94,0.00,,,-99.99,0.000000,,2013-03-18 12:01:00,
2013-03-18 02:22:00,56.0,54.0,-100.00,SSE,148,0.0,7.0,94,0.00,,,-99.99,0.000000,,2013-03-18 12:22:00,
2013-03-18 02:33:00,56.0,54.0,-100.00,SSE,148,0.0,7.0,94,0.00,,,-99.99,0.000000,,2013-03-18 12:33:00,
2013-03-18 02:43:00,56.0,54.0,-100.00,SSE,148,0.0,7.0,94,0.00,,,-99.99,0.000000,,2013-03-18 12:43:00,
2013-03-18 02:52:00,56.0,54.0,-100.00,SSE,148,0.0,7.0,94,0.00,,,-99.99,0.000000,,2013-03-18 12:52:00,
2013-03-18 03:01:00,57.0,56.0,-100.00,NNW,327,3.0,5.0,97,0.00,,,0.01,0.000000,,2013-03-18 13:01:00,
2013-03-18 03:33:00,57.0,56.0,-100.00,NNW,327,3.0,5.0,97,0.00,,,0.01,0.000000,,2013-03-18 13:33:00,
2013-03-18 03:42:00,57.0,56.0,-100.00,NNW,327,3.0,5.0,97,0.00,,,0.01,0.000000,,2013-03-18 13:42:00,
2013-03-18 03:52:00,57.0,56.0,-100.00,NNW,327,3.0,5.0,97,0.00,,,0.01,0.000000,,2013-03-18 13:52:00,
2013-03-18 04:01:00,57.0,56.0,-100.00,NNE,20,6.0,8.0,96,0.01,,,0.02,0.000000,,2013-03-18 14:01:00,
2013-03-18 04:32:00,57.0,56.0,-100.00,NNE,20,6.0,8.0,96,0.01,,,0.02,0.000000,,2013-03-18 14:32:00,
2013-03-18 04:42:00,57.0,56.0,-100.00,NNE,20,6.0,8.0,96,0.01,,,0.02,0.000000,,2013-03-18 14:42:00,
2013-03-18 04:52:00,57.0,56.0,-100.00,NNE,20,6.0,8.0,96,0.01,,,0.02,0.000000,,2013-03-18 14:52:00,
2013-03-18 05:01:00,57.0,55.0,-100.00,NNE,29,6.0,10.0,93,0.00,,,0.02,0.000000,,2013-03-18 15:01:00,
2013-03-18 05:23:00,57.0,55.0,-100.00,NNE,29,6.0,10.0,93,0.00,,,0.02,0.000000,,2013-03-18 15:23:00,
2013-03-18 05:33:00,57.0,55.0,-100.00,NNE,29,6.0,10.0,93,0.00,,,0.02,0.000000,,2013-03-18 15:33:00,
2013-03-18 05:43:00,57.0,55.0,-100.00,NNE,29,6.0,10.0,93,0.00,,,0.02,0.000000,,2013-03-18 15:43:00,
2013-03-18 05:52:00,57.0,55.0,-100.00,NNE,29,6.0,10.0,93,0.00,,,0.02,0.000000,,2013-03-18 15:52:00,
2013-03-18 06:01:00,57.0,54.0,-100.00,ENE,60,4.0,12.0,91,0.00,,,0.02,0.000000,,2013-03-18 16:01:00,
2013-03-18 06:33:00,57.0,54.0,-100.00,ENE,60,4.0,12.0,91,0.00,,,0.02,0.000000,,2013-03-18 16:33:00,
2013-03-18 06:42:00,57.0,54.0,-100.00,ENE,60,4.0,12.0,91,0.00,,,0.02,0.000000,,2013-03-18 16:42:00,
2013-03-18 06:52:00,57.0,54.0,-100.00,ENE,60,4.0,12.0,91,0.00,,,0.02,0.000000,,2013-03-18 16:52:00,
2013-03-18 07:01:00,57.0,55.0,-100.00,NE,35,5.0,8.0,92,0.00,,,0.02,8.000000,,2013-03-18 17:01:00,
2013-03-18 07:33:00,57.0,55.0,-100.00,NE,35,5.0,8.0,92,0.00,,,0.02,8.000000,,2013-03-18 17:33:00,
2013-03-18 07:43:00,57.0,55.0,-100.00,NE,35,5.0,8.0,92,0.00,,,0.02,8.000000,,2013-03-18 17:43:00,
2013-03-18 07:52:00,57.0,55.0,-100.00,NE,35,5.0,8.0,92,0.00,,,0.02,8.000000,,2013-03-18 17:52:00,
2013-03-18 08:01:00,61.0,56.0,-100.00,NE,41,5.0,10.0,85,0.00,,,0.02,130.000000,,2013-03-18 18:01:00,
2013-03-18 08:32:00,61.0,56.0,-100.00,NE,41,5.0,10.0,85,0.00,,,0.02,130.000000,,2013-03-18 18:32:00,
2013-03-18 08:42:00,61.0,56.0,-100.00,NE,41,5.0,10.0,85,0.00,,,0.02,130.000000,,2013-03-18 18:42:00,
2013-03-18 08:52:00,61.0,56.0,-100.00,NE,41,5.0,10.0,85,0.00,,,0.02,130.000000,,2013-03-18 18:52:00,
2013-03-18 09:01:00,64.0,56.0,-100.00,ESE,123,3.0,10.0,75,0.00,,,0.02,331.000000,,2013-03-18 19:01:00,
2013-03-18 09:22:00,64.0,56.0,-100.00,ESE,123,3.0,10.0,75,0.00,,,0.02,331.000000,,2013-03-18 19:22:00,
2013-03-18 09:33:00,64.0,56.0,-100.00,ESE,123,3.0,10.0,75,0.00,,,0.02,331.000000,,2013-03-18 19:33:00,
2013-03-18 09:42:00,64.0,56.0,-100.00,ESE,123,3.0,10.0,75,0.00,,,0.02,331.000000,,2013-03-18 19:42:00,
2013-03-18 09:52:00,64.0,56.0,-100.00,ESE,123,3.0,10.0,75,0.00,,,0.02,331.000000,,2013-03-18 19:52:00,
2013-03-18 10:01:00,63.0,56.0,-100.00,SSE,160,8.0,11.0,77,0.00,,,0.01,482.000000,,2013-03-18 20:01:00,
2013-03-18 10:33:00,63.0,56.0,-100.00,SSE,160,8.0,11.0,77,0.00,,,0.01,482.000000,,2013-03-18 20:33:00,
2013-03-18 10:42:00,63.0,56.0,-100.00,SSE,160,8.0,11.0,77,0.00,,,0.01,482.000000,,2013-03-18 20:42:00,
2013-03-18 10:52:00,63.0,56.0,-100.00,SSE,160,8.0,11.0,77,0.00,,,0.01,482.000000,,2013-03-18 20:52:00,
2013-03-18 11:01:00,65.0,57.0,-100.00,SE,134,5.0,11.0,76,0.00,,,0.01,404.000000,,2013-03-18 21:01:00,
2013-03-18 11:22:00,65.0,57.0,-100.00,SE,134,5.0,11.0,76,0.00,,,0.01,404.000000,,2013-03-18 21:22:00,
2013-03-18 11:33:00,65.0,57.0,-100.00,SE,134,5.0,11.0,76,0.00,,,0.01,404.000000,,2013-03-18 21:33:00,
2013-03-18 11:43:00,65.0,57.0,-100.00,SE,134,5.0,11.0,76,0.00,,,0.01,404.000000,,2013-03-18 21:43:00,
2013-03-18 11:52:00,65.0,57.0,-100.00,SE,134,5.0,11.0,76,0.00,,,0.01,404.000000,,2013-03-18 21:52:00,
2013-03-18 12:01:00,67.0,58.0,-100.00,SE,133,8.0,14.0,72,0.00,,,0.01,631.000000,,2013-03-18 22:01:00,
2013-03-18 12:33:00,67.0,58.0,-100.00,SE,133,8.0,14.0,72,0.00,,,0.01,631.000000,,2013-03-18 22:33:00,
2013-03-18 12:42:00,67.0,58.0,-100.00,SE,133,8.0,14.0,72,0.00,,,0.01,631.000000,,2013-03-18 22:42:00,
2013-03-18 12:52:00,67.0,58.0,-100.00,SE,133,8.0,14.0,72,0.00,,,0.01,631.000000,,2013-03-18 22:52:00,
2013-03-18 13:01:00,67.0,59.0,-100.00,ESE,121,8.0,16.0,75,0.00,,,0.01,687.000000,,2013-03-18 23:01:00,
2013-03-18 13:33:00,67.0,59.0,-100.00,ESE,121,8.0,16.0,75,0.00,,,0.01,687.000000,,2013-03-18 23:33:00,
2013-03-18 13:42:00,67.0,59.0,-100.00,ESE,121,8.0,16.0,75,0.00,,,0.01,687.000000,,2013-03-18 23:42:00,
2013-03-18 13:53:00,67.0,59.0,-100.00,ESE,121,8.0,16.0,75,0.00,,,0.01,687.000000,,2013-03-18 23:53:00,
2013-03-18 14:01:00,66.0,59.0,-100.00,ESE,118,11.0,18.0,78,0.00,,,0.01,429.000000,,2013-03-19 00:01:00,
2013-03-18 14:23:00,66.0,59.0,-100.00,ESE,118,11.0,18.0,78,0.00,,,0.01,429.000000,,2013-03-19 00:23:00,
2013-03-18 14:32:00,66.0,59.0,-100.00,ESE,118,11.0,18.0,78,0.00,,,0.01,429.000000,,2013-03-19 00:32:00,
2013-03-18 14:43:00,66.0,59.0,-100.00,ESE,118,11.0,18.0,78,0.00,,,0.01,429.000000,,2013-03-19 00:43:00,
2013-03-18 14:52:00,66.0,59.0,-100.00,ESE,118,11.0,18.0,78,0.00,,,0.01,429.000000,,2013-03-19 00:52:00,
2013-03-18 15:01:00,62.0,60.0,-100.00,SSE,155,10.0,19.0,92,0.00,,,0.01,95.000000,,2013-03-19 01:01:00,
2013-03-18 15:23:00,62.0,60.0,-100.00,SSE,155,10.0,19.0,92,0.00,,,0.01,95.000000,,2013-03-19 01:23:00,
2013-03-18 15:33:00,62.0,60.0,-100.00,SSE,155,10.0,19.0,92,0.00,,,0.01,95.000000,,2013-03-19 01:33:00,
2013-03-18 15:43:00,62.0,60.0,-100.00,SSE,155,10.0,19.0,92,0.00,,,0.01,95.000000,,2013-03-19 01:43:00,
2013-03-18 15:52:00,62.0,60.0,-100.00,SSE,155,10.0,19.0,92,0.00,,,0.01,95.000000,,2013-03-19 01:52:00,
2013-03-18 16:01:00,60.0,59.0,-100.00,SE,129,10.0,18.0,98,0.00,,,0.01,47.000000,,2013-03-19 02:01:00,
2013-03-18 16:33:00,60.0,59.0,-100.00,SE,129,10.0,18.0,98,0.00,,,0.01,47.000000,,2013-03-19 02:33:00,
2013-03-18 16:42:00,60.0,59.0,-100.00,SE,129,10.0,18.0,98,0.00,,,0.01,47.000000,,2013-03-19 02:42:00,
2013-03-18 16:52:00,60.0,59.0,-100.00,SE,129,10.0,18.0,98,0.00,,,0.01,47.000000,,2013-03-19 02:52:00,
2013-03-18 17:01:00,62.0,58.0,-100.00,SE,130,7.0,15.0,86,0.00,,,0.01,129.000000,,2013-03-19 03:01:00,
2013-03-18 17:22:00,62.0,58.0,-100.00,SE,130,7.0,15.0,86,0.00,,,0.01,129.000000,,2013-03-19 03:22:00,
2013-03-18 17:33:00,62.0,58.0,-100.00,SE,130,7.0,15.0,86,0.00,,,0.01,129.000000,,2013-03-19 03:33:00,
2013-03-18 17:43:00,62.0,58.0,-100.00,SE,130,7.0,15.0,86,0.00,,,0.01,129.000000,,2013-03-19 03:43:00,
2013-03-18 17:53:00,62.0,58.0,-100.00,SE,130,7.0,15.0,86,0.00,,,0.01,129.000000,,2013-03-19 03:53:00,
2013-03-18 18:01:00,61.0,57.0,-100.00,East,79,6.0,10.0,88,0.00,,,0.01,69.000000,,2013-03-19 04:01:00,
2013-03-18 18:34:00,61.0,57.0,-100.00,East,79,6.0,10.0,88,0.00,,,0.01,69.000000,,2013-03-19 04:34:00,
2013-03-18 18:43:00,61.0,57.0,-100.00,East,79,6.0,10.0,88,0.00,,,0.01,69.000000,,2013-03-19 04:43:00,
2013-03-18 18:52:00,61.0,57.0,-100.00,East,79,6.0,10.0,88,0.00,,,0.01,69.000000,,2013-03-19 04:52:00,
2013-03-18 19:01:00,59.0,57.0,-100.00,NNE,33,7.0,11.0,93,0.00,,,0.01,8.000000,,2013-03-19 05:01:00,
2013-03-18 19:32:00,59.0,57.0,-100.00,NNE,33,7.0,11.0,93,0.00,,,0.01,8.000000,,2013-03-19 05:32:00,
2013-03-18 19:43:00,59.0,57.0,-100.00,NNE,33,7.0,11.0,93,0.00,,,0.01,8.000000,,2013-03-19 05:43:00,
2013-03-18 19:52:00,59.0,57.0,-100.00,NNE,33,7.0,11.0,93,0.00,,,0.01,8.000000,,2013-03-19 05:52:00,
2013-03-18 20:01:00,59.0,56.0,-100.00,NNE,18,8.0,13.0,91,0.00,,,0.01,0.000000,,2013-03-19 06:01:00,
2013-03-18 20:22:00,59.0,56.0,-100.00,NNE,18,8.0,13.0,91,0.00,,,0.01,0.000000,,2013-03-19 06:22:00,
2013-03-18 20:32:00,59.0,56.0,-100.00,NNE,18,8.0,13.0,91,0.00,,,0.01,0.000000,,2013-03-19 06:32:00,
2013-03-18 20:42:00,59.0,56.0,-100.00,NNE,18,8.0,13.0,91,0.00,,,0.01,0.000000,,2013-03-19 06:42:00,
2013-03-18 20:52:00,59.0,56.0,-100.00,NNE,18,8.0,13.0,91,0.00,,,0.01,0.000000,,2013-03-19 06:52:00,
2013-03-18 21:01:00,59.0,56.0,-100.00,NNE,13,5.0,13.0,90,0.00,,,0.01,0.000000,,2013-03-19 07:01:00,
2013-03-18 21:32:00,59.0,56.0,-100.00,NNE,13,5.0,13.0,90,0.00,,,0.01,0.000000,,2013-03-19 07:32:00,
2013-03-18 21:42:00,59.0,56.0,-100.00,NNE,13,5.0,13.0,90,0.00,,,0.01,0.000000,,2013-03-19 07:42:00,
2013-03-18 21:52:00,59.0,56.0,-100.00,NNE,13,5.0,13.0,90,0.00,,,0.01,0.000000,,2013-03-19 07:52:00,
2013-03-18 22:01:00,57.0,55.0,-100.00,NNE,30,5.0,8.0,92,0.00,,,0.01,0.000000,,2013-03-19 08:01:00,
2013-03-18 22:32:00,57.0,55.0,-100.00,NNE,30,5.0,8.0,92,0.00,,,0.01,0.000000,,2013-03-19 08:32:00,
2013-03-18 22:42:00,57.0,55.0,-100.00,NNE,30,5.0,8.0,92,0.00,,,0.01,0.000000,,2013-03-19 08:42:00,
2013-03-18 22:52:00,57.0,55.0,-100.00,NNE,30,5.0,8.0,92,0.00,,,0.01,0.000000,,2013-03-19 08:52:00,
2013-03-18 23:01:00,57.0,55.0,-100.00,NNE,19,6.0,8.0,92,0.00,,,0.01,0.000000,,2013-03-19 09:01:00,
2013-03-18 23:23:00,57.0,55.0,-100.00,NNE,19,6.0,8.0,92,0.00,,,0.01,0.000000,,2013-03-19 09:23:00,
2013-03-18 23:33:00,57.0,55.0,-100.00,NNE,19,6.0,8.0,92,0.00,,,0.01,0.000000,,2013-03-19 09:33:00,
2013-03-18 23:43:00,57.0,55.0,-100.00,NNE,19,6.0,8.0,92,0.00,,,0.01,0.000000,,2013-03-19 09:43:00,
2013-03-18 23:53:00,57.0,55.0,-100.00,NNE,19,6.0,8.0,92,0.00,,,0.01,0.000000,,2013-03-19 09:53:00,